Flag for U.S.A. Weather past 2 weeks in Mason, Ohio, U.S.A.

Now
48 °F

Sunny.


Feels Like: 44 °F
Forecast: 25 / 53 °F
Wind: 9 mph from Southeast

Location: Butler County Regional Airport


UV Index: 5 (Moderate)

Visibility: 10 mi


Pressure: 30.39 "Hg

Humidity: 32%

Dew point: 19 °F

Location of MasonLocation

Historic Weather in Mason

°F

Mason temperature yesterday

Maximum temperature yesterday: 41 °F (at 4:53 PM)
Minimum temperature yesterday: 29 °F (at 11:53 PM)
Average temperature yesterday: 36 °F

Past Weeks' High & Low Weather Summary

 TemperatureHumidityPressure
High83 °F (Apr 13, 3:53 PM)100% (Apr 2, 5:53 AM)30.45 "Hg (Apr 2, 5:53 AM)
Low25 °F (Apr 16, 5:53 AM)14% (Apr 1, 6:53 PM)29.36 "Hg (Apr 7, 6:53 PM)
Average55 °F66%29.94 "Hg
* Reported Apr 1 1:53 PM — Apr 16 1:53 PM, Mason, Weather by CustomWeather, © 2014

Note: Actual official high and low records may vary slightly from our data, if they occured in-between our weather recording intervals... More about our weather records

Advertising

Historic Weather Conditions — Data for Previous 24 hours

 ConditionsComfort  
Time TempWeatherWind HumidityBarometerVisibility
1:53 PM
Apr 16
47 °FSunny.7 mph36%30.41 "Hg10 mi
12:53 PM45 °FSunny.10 mph34%30.43 "Hg10 mi
11:53 AM43 °FSunny.13 mph35%30.45 "Hg10 mi
10:53 AM40 °FSunny.14 mph36%30.45 "Hg10 mi
9:53 AM38 °FSunny.9 mph37%30.45 "Hg10 mi
8:53 AM34 °FSunny.5 mph54%30.45 "Hg10 mi
7:53 AM28 °FClear.No wind78%30.44 "Hg10 mi
6:53 AM25 °FClear.No wind81%30.42 "Hg10 mi
5:53 AM25 °FClear.No wind81%30.40 "Hg10 mi
4:53 AM26 °FClear.No wind77%30.38 "Hg10 mi
3:53 AM26 °FClear.No wind77%30.35 "Hg10 mi
2:53 AM27 °FClear.No wind72%30.33 "Hg10 mi
1:53 AM28 °FClear.No wind75%30.31 "Hg10 mi
12:53 AM30 °FClear.5 mph64%30.29 "Hg10 mi
11:53 PM
Apr 15
29 °FClear.3 mph72%30.29 "Hg10 mi
10:53 PM32 °FClear.3 mph61%30.29 "Hg10 mi
9:53 PM34 °FClear.7 mph52%30.27 "Hg10 mi
8:53 PM36 °FOvercast.7 mph48%30.24 "Hg10 mi
7:53 PM38 °FOvercast.15 mph43%30.22 "Hg10 mi
6:53 PM40 °FScattered clouds.15 mph41%30.20 "Hg10 mi
5:53 PM40 °FOvercast.16 mph49%30.17 "Hg10 mi
4:53 PM41 °FOvercast.20 mph45%30.14 "Hg10 mi
3:53 PM40 °FOvercast.17 mph51%30.15 "Hg10 mi
Weather by CustomWeather, © 2014

See weather overview